Temp_Advection
nan nan nan nan nan nan nan nan nan nan nan nan nan nan nan nan nan nan nan nan nan nan nan nan nan nan nan nan nan nan nan nan nan nan nan nan nan nan nan nan nan nan nan nan nan
nan 0 0 -0 -0 -0 0 0 0 -0 -0 0 0 -0 -0 0 -0 -0 -0 0 0 0 0 0 0 0 0 0 -0 -1 0 0 0 0 0 0 0 -0 0 -0 -0 0 0 0 nan
nan -0 -0 0 0 0 0 -0 -0 -0 0 -0 0 0 0 0 -0 -0 0 0 0 0 0 0 0 0 -0 -0 -0 -0 -0 0 0 0 0 0 0 0 0 0 0 0 0 0 nan
nan -0 -0 0 0 0 0 -0 -0 0 0 0 0 1 0 0 0 0 0 0 0 0 0 0 -0 -0 -0 0 -0 -0 0 -0 -0 0 -0 -0 -0 -0 -0 0 0 0 -0 -0 nan
nan -0 -0 0 0 0 0 0 -0 0 0 0 0 0 0 -1 -0 0 0 0 0 0 0 0 0 -1 -0 0 -0 -0 0 0 0 -0 -0 -0 -0 -0 -1 -0 0 -0 -0 -0 nan
nan 0 -0 0 0 0 0 0 0 0 0 0 0 0 -0 -0 1 0 0 0 0 0 0 0 0 -1 -1 -0 0 0 -0 0 0 -0 -0 -0 -0 -0 -0 -0 -0 0 0 -0 nan
nan -0 -0 -0 0 0 0 0 0 0 0 0 0 0 -1 -0 1 0 0 0 0 0 0 0 0 -0 -1 -0 0 -0 -0 0 -0 -0 -0 -0 0 -0 -0 -0 -0 -0 -0 0 nan
nan -0 0 -0 0 0 0 0 0 0 0 1 1 -0 -0 0 0 0 0 0 0 0 0 0 0 -0 -0 0 -1 -0 -0 0 -0 -0 -0 -0 -0 -0 -0 -0 -0 -0 -0 -0 nan
nan 0 -0 0 0 0 -0 0 0 0 0 1 0 -0 0 0 0 0 0 0 0 0 0 0 -0 -1 -1 -1 -0 -0 0 0 -0 -0 -0 -0 -0 -0 -0 -0 -1 -1 -1 -1 nan
nan -0 -0 0 0 0 1 0 0 1 -0 0 0 0 0 0 0 0 0 0 0 0 0 -0 -1 -0 -0 0 -0 -0 0 0 -0 -0 -0 -0 -0 -1 -2 -1 -1 -1 -1 -0 nan
nan -0 0 0 0 -0 -0 1 -0 -1 -1 1 1 1 0 0 0 0 0 0 0 -1 -0 -1 -1 0 0 0 -0 -0 0 0 -0 -0 -0 -0 -0 -1 -1 -0 -0 -0 -0 -0 nan
nan -0 0 0 0 0 -0 -1 -0 0 1 2 1 0 0 0 0 0 0 -0 -0 -0 -0 -0 0 0 -0 -0 -0 -0 -0 -0 -0 -0 -0 -0 -0 -0 -0 -0 -0 -0 0 -0 nan
nan -0 0 0 0 0 -0 -0 0 0 0 0 -0 0 0 -0 -0 -0 -0 -0 -1 -0 -0 0 0 0 -0 -0 -0 -0 0 0 -0 -0 -0 -0 -0 -0 -0 0 0 0 0 0 nan
nan 0 1 -0 0 0 0 0 0 -0 -0 -0 -0 0 0 -0 0 0 -0 -0 -0 -0 0 0 -0 -0 -0 -0 -0 0 0 -0 -0 -0 -0 -0 -0 -0 -0 -0 -0 -0 -0 -0 nan
nan -0 0 0 -0 -0 0 0 0 -0 -0 -1 -0 -0 -0 -0 0 0 0 -1 -0 0 -0 0 0 -0 0 -0 -0 -0 0 -0 -0 -1 0 -0 0 -1 -0 -0 0 -0 -0 -0 nan
nan -0 -0 -0 0 0 0 0 -0 -1 0 -0 -0 -0 -0 -0 0 0 -0 -0 -0 -1 -1 0 0 -0 -0 -0 -0 -0 -0 -1 -1 -0 0 -0 0 -0 -0 0 0 -0 -0 0 nan
nan -0 -0 0 0 0 0 -0 -1 0 0 0 0 -0 -0 -0 -0 -0 -0 -1 -0 -0 -1 -1 -0 -0 -0 -0 -0 -0 -1 -0 0 0 0 0 0 -1 -0 0 -0 -0 -1 -0 nan
nan 0 0 0 0 0 0 -1 0 -0 -0 -0 -0 -0 -0 0 -0 -0 -0 -0 0 -1 -0 0 -0 0 0 -0 -0 -0 -0 -0 -0 -0 -0 0 -0 -0 -0 -0 -0 0 0 -0 nan
nan 0 0 0 0 0 -0 -0 -0 -0 -0 -0 -0 -0 0 -0 -0 -0 -0 -0 -0 -0 -1 -0 -0 0 -0 0 -0 -0 0 -0 0 -0 0 0 -1 -0 0 -0 -0 0 0 0 nan
nan 0 0 0 0 -0 -1 0 0 -0 0 -0 -0 -0 0 -0 -0 -0 -0 -0 -0 -0 -0 -0 0 -0 -0 0 -0 0 -0 -0 -0 0 -0 0 -0 -0 -0 -0 -0 0 -1 -0 nan
nan -0 0 0 -0 -3 -0 0 0 0 0 -0 -0 -0 0 0 -0 0 -0 -0 -0 -0 -0 -0 0 -0 0 0 0 0 0 0 -0 0 -0 -0 0 -0 -1 -0 -0 -0 -0 0 nan
nan -0 0 0 -1 -1 0 0 0 0 -0 -0 -0 -0 -0 -0 -0 -0 0 -0 -0 -0 -0 -0 -0 0 -0 -0 -0 -0 0 0 -0 -0 -0 0 -0 -0 -0 -0 -0 -0 -0 0 nan
nan -0 0 -0 -1 0 0 0 0 -0 0 0 0 0 -0 -0 -0 -0 -0 -0 0 -0 -0 -0 0 0 -0 -0 -0 0 -0 -0 -0 -0 0 -0 -1 -0 0 -0 -1 -0 -1 0 nan
nan -0 0 -1 -1 -0 0 -0 0 0 0 0 0 -0 -0 -0 0 0 -0 -0 0 -0 -0 -0 0 -0 0 0 0 0 -0 -0 -0 -0 -0 -0 -1 -1 1 0 -1 -1 -0 0 nan
nan -0 -0 -0 0 0 0 0 0 -0 0 0 0 0 0 0 0 0 -0 -0 0 0 0 0 0 -0 -0 -0 -0 -0 0 -0 -0 -1 -0 0 -1 -1 0 0 -1 -0 0 -0 nan
nan -0 -0 -0 0 -0 -0 -0 -0 -0 -0 -0 0 0 0 0 -0 -0 -0 -0 -0 0 0 0 0 0 0 0 0 -0 -0 -0 -1 0 -0 -0 -1 -1 0 0 -0 0 0 -0 nan
nan nan nan nan nan nan nan nan nan nan nan nan nan nan nan nan nan nan nan nan nan nan nan nan nan nan nan nan nan nan nan nan nan nan nan nan nan nan nan nan nan nan nan nan nan
Wind_Speed
13 9 13 8 6 4 7 11 16 8 18 16 14 12 16 19 21 18 14 7 8 9 13 14 16 18 14 8 6 3 5 2 2 3 3 5 3 5 5 7 7 5 5 9 9
14 12 9 7 6 9 7 13 10 10 14 19 15 15 21 22 21 21 9 7 10 10 14 16 18 17 8 4 4 6 4 4 1 0 2 4 5 3 2 4 6 11 11 9 6
14 9 8 6 6 3 6 10 10 13 21 21 16 19 24 21 17 7 8 10 11 13 15 19 17 14 7 6 4 3 4 5 2 3 2 2 3 3 2 1 3 7 5 4 5
15 13 7 6 6 4 7 5 6 7 7 20 20 24 21 12 5 4 8 14 15 15 18 17 15 6 5 5 3 6 4 3 5 3 2 3 2 2 2 1 7 2 4 6 8
12 9 8 5 5 4 5 4 11 13 7 22 25 18 10 13 8 7 11 12 14 13 18 15 15 8 6 7 5 5 4 5 6 5 5 3 3 4 9 6 8 10 11 13 15
14 5 5 5 2 3 5 6 8 10 15 16 24 14 11 12 12 9 9 11 12 14 17 13 8 13 11 5 5 5 10 8 2 4 4 2 2 5 1 1 6 8 7 7 12
19 12 5 6 5 4 6 8 17 23 17 28 22 17 25 12 14 14 9 12 11 12 15 12 15 3 10 6 7 8 5 3 4 1 2 4 3 6 3 2 4 8 10 11 13
22 15 7 6 6 10 16 21 24 31 29 27 24 19 13 14 11 12 10 14 13 12 14 13 10 16 6 13 6 5 5 3 3 3 3 4 7 4 4 8 10 13 20 25 25
22 24 15 12 16 30 23 24 25 29 27 24 22 17 7 11 12 11 8 13 12 12 14 10 8 8 5 5 5 7 2 2 2 8 4 3 6 5 7 12 25 30 28 29 28
20 18 25 28 33 28 26 23 30 27 24 23 18 13 7 12 11 11 13 13 13 13 11 6 6 4 4 5 4 4 4 2 1 6 5 3 10 10 24 20 29 31 25 16 10
16 17 15 22 33 28 26 23 18 19 33 18 11 18 15 15 12 11 13 14 13 10 4 7 8 4 3 3 3 6 4 3 1 4 4 0 6 17 21 16 17 11 5 6 8
21 22 16 22 14 15 8 15 14 18 19 22 22 21 13 10 14 13 7 5 6 5 3 7 5 2 3 6 7 6 4 3 3 4 3 6 13 12 7 3 4 7 5 10 13
21 28 32 34 29 33 28 23 17 13 9 18 17 18 11 18 11 15 10 8 9 7 6 7 2 3 4 6 6 5 4 2 0 6 4 8 6 3 3 6 4 5 10 13 18
26 28 29 19 12 11 14 8 4 3 5 11 12 10 11 4 8 16 10 5 6 5 5 6 4 4 5 5 4 2 1 2 2 4 2 4 4 5 3 4 2 7 14 17 22
18 10 6 11 11 13 10 6 2 1 6 8 7 7 8 8 2 11 10 13 5 3 3 3 2 4 5 2 3 3 1 1 2 4 4 2 3 7 3 4 5 8 15 18 22
14 10 5 9 12 13 11 6 2 6 2 5 5 5 4 10 4 4 7 10 3 7 8 3 2 2 2 3 3 2 3 5 4 3 3 3 3 6 4 4 3 8 18 19 20
5 2 7 12 13 11 8 2 5 7 4 2 2 3 3 5 5 6 4 5 3 5 5 6 3 3 2 3 5 5 5 3 5 4 5 2 0 9 6 5 4 10 20 19 16
3 5 9 13 13 9 4 5 9 4 3 2 1 4 4 4 4 4 3 3 4 5 4 4 5 1 1 3 4 1 5 4 5 2 4 1 6 6 5 10 12 17 19 19 16
5 5 11 15 12 6 3 6 5 4 3 4 3 5 4 3 3 4 2 3 1 2 5 4 2 1 2 1 1 2 1 4 0 1 2 3 7 8 4 7 15 17 15 16 12
2 3 13 13 11 6 6 6 3 3 4 3 3 1 3 1 2 3 1 1 2 1 3 4 3 2 3 2 3 2 2 2 1 1 4 5 5 6 4 7 7 10 14 11 11
3 3 14 11 8 14 4 3 4 5 2 2 2 2 2 1 1 1 2 1 2 1 4 3 3 1 1 4 7 3 2 3 2 3 3 4 6 7 8 7 8 14 14 16 12
4 3 13 8 6 5 3 2 2 2 3 2 2 2 4 4 3 1 2 2 6 7 2 1 4 2 8 3 8 4 6 6 3 3 3 2 7 5 9 10 12 19 21 20 17
2 2 10 5 4 3 1 3 3 2 1 2 1 1 1 4 1 2 3 2 8 6 4 3 1 2 4 1 2 4 5 5 2 2 6 4 6 3 7 11 22 22 25 22 16
2 2 6 9 8 6 3 1 2 3 2 2 1 2 2 0 1 2 2 2 6 7 5 6 2 5 6 4 3 4 5 9 7 4 3 9 10 19 10 10 19 24 20 16 15
3 2 2 1 3 5 3 5 1 2 3 4 0 4 4 2 1 3 2 1 1 4 5 3 4 4 8 11 10 14 11 10 14 15 8 3 11 17 14 9 18 25 17 13 16
3 3 4 3 4 2 1 5 6 2 5 3 4 4 5 5 7 6 5 4 5 3 5 3 3 3 9 9 8 12 16 18 20 20 20 21 27 24 31 12 9 15 13 14 17
3 2 0 2 3 4 3 4 6 4 4 3 6 3 4 9 11 9 9 4 5 7 7 3 3 5 5 4 8 8 13 19 9 7 19 16 22 11 12 10 17 16 15 16 16
Wind_Direction
61 77 68 55 79 152 184 209 246 228 165 163 159 144 144 140 141 137 117 135 150 143 152 145 145 148 140 109 90 78 63 96 152 159 147 16 88 40 54 78 63 63 93 124 148
60 71 76 62 64 80 138 191 214 237 190 170 162 145 141 140 144 121 84 113 140 144 150 149 142 144 106 89 57 71 85 179 202 103 96 48 79 15 66 82 73 98 111 136 161
52 69 81 88 83 86 113 142 172 232 173 163 153 150 143 138 133 85 98 135 141 147 150 144 135 131 83 80 36 80 137 160 77 103 112 70 49 37 66 98 175 145 143 167 205
37 46 73 85 96 86 131 195 181 152 231 160 148 143 139 144 127 88 131 141 142 146 149 139 136 97 87 92 78 94 74 126 137 73 49 58 34 331 255 111 159 173 231 241 248
14 43 61 98 93 106 98 112 233 234 203 159 138 139 123 87 64 87 132 142 141 139 149 135 130 110 110 111 87 82 121 96 101 70 60 34 23 300 272 258 254 265 261 261 265
22 27 56 85 154 129 110 123 158 172 175 143 137 136 116 78 70 84 125 144 142 146 144 143 135 116 94 80 77 105 110 119 96 90 50 33 305 335 208 271 261 264 265 270 280
28 38 56 74 74 121 102 112 121 145 151 131 130 128 89 81 86 87 113 119 125 144 144 117 123 133 111 92 101 110 83 83 26 51 69 340 263 234 285 339 313 292 292 297 301
39 50 76 91 69 109 117 125 122 135 131 130 125 116 76 92 97 96 102 106 105 127 127 109 108 104 70 114 51 59 51 107 340 27 14 47 270 316 320 311 306 302 299 301 307
47 53 74 69 116 113 115 114 119 122 119 120 115 84 63 94 93 86 106 118 118 116 115 112 107 73 69 77 42 18 157 138 101 32 350 50 274 271 348 308 298 299 306 310 304
54 73 76 93 94 105 117 121 125 123 100 97 83 79 69 61 71 92 98 119 124 123 107 76 61 73 35 52 191 178 110 55 110 345 10 334 280 291 298 304 296 303 309 315 323
52 64 92 105 110 98 102 108 92 60 60 71 58 84 88 78 82 94 100 106 108 85 70 32 64 64 59 40 88 104 94 94 74 10 359 107 279 283 305 299 292 321 51 29 1
51 57 79 68 100 73 99 88 92 114 76 64 73 71 72 71 71 69 96 79 71 80 60 40 66 10 69 61 77 58 90 8 284 14 355 349 293 290 311 333 99 91 38 0 344
80 83 85 84 88 90 75 85 91 92 88 42 34 37 32 62 45 26 49 69 65 56 47 98 116 44 80 43 67 40 90 46 338 333 43 321 297 328 281 142 113 43 4 346 340
109 102 84 92 69 56 52 51 78 96 82 357 354 22 11 41 45 36 34 68 47 107 72 67 6 74 65 62 68 82 46 71 33 45 264 9 274 293 248 263 241 335 340 335 333
130 139 125 51 33 24 24 12 16 136 71 312 337 357 36 81 126 21 40 65 79 66 107 244 64 72 71 64 108 177 95 69 89 81 47 326 79 269 272 248 250 310 326 331 334
114 128 87 16 5 2 355 346 62 44 49 335 342 352 25 43 46 56 57 75 99 64 41 65 55 62 115 80 64 87 76 44 62 93 16 243 136 277 208 206 253 298 330 332 334
94 45 353 353 355 353 356 36 46 62 354 327 32 14 53 20 35 41 37 32 89 80 13 352 336 324 94 67 17 73 52 346 354 12 222 276 26 249 267 232 238 295 313 323 326
16 2 10 8 354 350 356 60 69 230 195 252 55 29 67 5 25 17 67 35 45 74 97 126 331 170 171 146 168 112 131 151 215 230 275 333 238 250 227 231 244 278 291 305 315
0 36 20 9 8 2 115 54 155 185 179 136 58 67 359 10 109 50 87 144 127 149 127 141 287 99 59 74 105 155 331 181 14 40 296 252 284 293 207 266 264 273 298 299 316
60 53 12 8 8 24 70 100 82 147 108 72 122 155 159 231 46 43 298 243 122 127 130 192 65 220 144 100 69 109 234 126 81 285 283 285 278 243 269 256 277 298 286 306 302
345 352 6 358 37 63 82 78 87 65 89 115 134 109 100 124 132 185 233 327 129 151 71 123 97 300 58 214 187 142 213 195 201 229 191 307 273 217 212 212 243 268 285 286 307
22 35 358 18 38 41 93 104 115 63 60 75 124 118 150 162 146 184 190 229 172 152 98 168 126 193 220 220 187 171 188 180 176 247 237 185 272 227 221 226 245 273 295 301 305
18 26 15 12 97 12 50 106 116 122 55 28 46 53 174 174 169 208 226 300 178 157 159 177 206 1 360 74 90 228 194 202 175 150 216 153 260 328 254 261 266 276 294 309 309
29 25 38 60 81 116 96 304 137 159 170 152 145 74 74 104 180 207 223 243 192 194 169 159 215 194 196 207 157 215 206 205 189 203 203 231 280 273 273 264 278 290 302 310 316
63 89 59 42 13 110 113 163 182 203 194 174 192 179 163 206 263 243 194 319 225 203 148 159 258 226 255 257 246 247 235 208 210 225 230 262 232 267 283 274 283 301 309 307 315
356 142 120 106 110 83 34 205 189 226 163 242 186 206 182 185 188 200 163 198 205 158 161 193 264 290 291 265 244 252 243 232 231 231 241 255 273 276 277 286 293 309 301 297 309
83 86 266 146 123 118 223 201 208 177 226 227 209 138 196 232 231 248 233 205 196 165 190 194 241 307 264 306 305 275 235 217 201 206 220 236 243 264 280 283 287 304 300 292 301
Height
1450 1451 1451 1452 1452 1453 1454 1455 1460 1461 1466 1471 1475 1477 1479 1483 1486 1489 1493 1498 1499 1499 1501 1503 1505 1507 1510 1514 1516 1518 1532 1541 1537 1534 1535 1533 1533 1535 1536 1535 1536 1537 1538 1540 1542
1456 1455 1455 1456 1456 1457 1458 1460 1464 1464 1466 1472 1476 1478 1481 1485 1488 1488 1496 1497 1499 1500 1503 1505 1506 1508 1512 1516 1518 1520 1537 1536 1536 1535 1536 1535 1535 1536 1537 1537 1539 1540 1541 1542 1542
1460 1459 1458 1458 1458 1460 1462 1463 1464 1467 1464 1472 1477 1480 1482 1486 1491 1494 1494 1497 1499 1502 1504 1506 1507 1510 1513 1518 1522 1525 1534 1534 1536 1536 1536 1536 1537 1538 1538 1539 1540 1541 1542 1543 1543
1464 1462 1461 1460 1461 1461 1463 1464 1465 1466 1467 1470 1477 1481 1485 1487 1496 1495 1496 1498 1499 1502 1505 1507 1508 1511 1517 1521 1524 1530 1533 1533 1535 1536 1537 1538 1539 1539 1539 1540 1540 1541 1542 1542 1542
1466 1464 1464 1463 1462 1462 1464 1463 1464 1468 1472 1470 1478 1484 1487 1490 1497 1497 1498 1500 1501 1504 1506 1508 1508 1511 1518 1522 1525 1530 1534 1535 1536 1537 1539 1539 1540 1541 1537 1539 1539 1540 1540 1541 1540
1468 1466 1465 1465 1465 1465 1466 1467 1467 1470 1471 1473 1480 1485 1489 1493 1500 1500 1501 1502 1504 1505 1507 1509 1510 1512 1517 1524 1526 1531 1534 1537 1539 1540 1541 1541 1542 1541 1537 1537 1537 1537 1538 1539 1539
1470 1468 1467 1467 1467 1467 1468 1469 1470 1472 1475 1480 1483 1488 1490 1500 1502 1502 1504 1504 1506 1508 1510 1512 1513 1514 1519 1525 1530 1532 1537 1539 1541 1541 1543 1543 1542 1540 1537 1536 1536 1535 1536 1537 1538
1473 1471 1470 1470 1470 1470 1472 1474 1474 1476 1480 1483 1486 1490 1498 1503 1504 1505 1506 1507 1509 1510 1513 1515 1517 1516 1521 1527 1532 1536 1540 1545 1543 1543 1544 1544 1547 1536 1537 1536 1535 1535 1534 1534 1535
1477 1476 1471 1474 1472 1473 1476 1479 1481 1483 1486 1488 1492 1494 1505 1507 1508 1508 1508 1509 1511 1513 1515 1518 1519 1523 1527 1533 1546 1548 1557 1545 1545 1545 1546 1547 1545 1536 1537 1535 1532 1531 1532 1531 1528
1482 1482 1481 1480 1478 1481 1483 1484 1485 1488 1491 1495 1499 1504 1511 1513 1512 1511 1511 1512 1513 1516 1519 1521 1523 1530 1535 1541 1559 1554 1549 1546 1546 1551 1547 1549 1547 1537 1533 1534 1529 1528 1528 1527 1526
1489 1488 1487 1488 1487 1489 1490 1490 1494 1503 1502 1508 1513 1511 1514 1514 1515 1514 1515 1516 1516 1519 1526 1527 1535 1546 1543 1540 1541 1544 1546 1548 1550 1552 1548 1549 1550 1535 1531 1530 1528 1527 1527 1527 1526
1496 1493 1490 1492 1493 1494 1494 1494 1498 1506 1513 1516 1517 1517 1518 1518 1518 1519 1519 1520 1519 1527 1528 1536 1549 1545 1544 1543 1545 1547 1550 1556 1554 1552 1551 1552 1545 1534 1531 1529 1528 1528 1527 1526 1524
1502 1501 1498 1501 1502 1501 1501 1503 1505 1506 1514 1521 1521 1521 1522 1522 1523 1524 1523 1524 1527 1533 1535 1542 1547 1545 1545 1548 1549 1557 1557 1558 1559 1556 1555 1556 1544 1535 1531 1530 1529 1528 1526 1524 1522
1508 1507 1508 1508 1510 1509 1509 1509 1509 1509 1521 1531 1527 1527 1527 1525 1528 1529 1527 1529 1532 1540 1540 1547 1547 1546 1548 1551 1556 1561 1557 1558 1560 1570 1574 1561 1569 1539 1531 1528 1527 1526 1525 1522 1519
1512 1511 1511 1511 1512 1511 1513 1510 1509 1510 1545 1538 1533 1532 1529 1529 1534 1532 1531 1531 1537 1540 1542 1555 1551 1551 1553 1555 1556 1559 1558 1559 1562 1581 1583 1566 1581 1540 1531 1527 1524 1523 1521 1519 1516
1515 1514 1514 1513 1512 1512 1511 1509 1510 1525 1554 1543 1536 1535 1533 1532 1534 1534 1534 1535 1539 1542 1545 1552 1551 1552 1553 1555 1555 1556 1560 1564 1571 1588 1596 1566 1571 1547 1530 1522 1522 1519 1516 1514 1511
1519 1518 1515 1514 1512 1511 1510 1510 1526 1539 1547 1543 1541 1538 1537 1538 1537 1537 1540 1542 1548 1559 1570 1558 1556 1553 1553 1556 1557 1560 1570 1594 1587 1593 1579 1582 1573 1536 1521 1519 1519 1517 1513 1512 1510
1520 1518 1517 1515 1512 1510 1510 1514 1545 1544 1546 1541 1540 1540 1544 1541 1541 1541 1542 1551 1545 1551 1579 1575 1574 1554 1554 1556 1562 1563 1574 1587 1586 1600 1582 1569 1558 1530 1518 1517 1517 1514 1512 1510 1508
1520 1519 1517 1514 1512 1510 1511 1536 1543 1542 1540 1541 1543 1550 1546 1543 1544 1543 1546 1549 1546 1548 1562 1563 1562 1554 1555 1555 1556 1560 1576 1564 1564 1576 1572 1571 1544 1521 1518 1516 1513 1512 1510 1506 1504
1520 1519 1518 1515 1512 1511 1515 1534 1538 1537 1538 1541 1547 1543 1547 1545 1546 1549 1546 1545 1547 1547 1547 1554 1568 1554 1556 1556 1558 1558 1561 1565 1569 1594 1587 1561 1561 1535 1523 1513 1510 1508 1506 1503 1502
1521 1519 1518 1515 1513 1512 1536 1540 1538 1539 1539 1541 1543 1545 1547 1546 1549 1551 1548 1546 1546 1547 1548 1552 1561 1559 1553 1554 1557 1559 1560 1562 1566 1560 1580 1563 1544 1516 1511 1508 1508 1505 1503 1500 1497
1522 1521 1519 1516 1517 1524 1536 1535 1537 1539 1539 1540 1540 1541 1545 1546 1547 1553 1550 1546 1545 1546 1549 1551 1559 1570 1554 1549 1549 1552 1556 1557 1560 1571 1556 1563 1540 1502 1503 1502 1503 1500 1497 1494 1492
1523 1522 1521 1518 1533 1538 1533 1532 1535 1537 1539 1539 1540 1540 1540 1543 1546 1547 1548 1543 1544 1546 1550 1552 1558 1575 1550 1548 1549 1549 1550 1550 1551 1553 1554 1570 1536 1502 1502 1501 1497 1496 1492 1490 1487
1524 1527 1523 1522 1527 1532 1537 1537 1536 1536 1537 1538 1539 1540 1541 1542 1543 1545 1548 1544 1545 1546 1547 1548 1552 1556 1563 1550 1545 1545 1543 1544 1548 1547 1548 1539 1522 1497 1499 1499 1493 1491 1488 1485 1483
1524 1528 1530 1533 1532 1532 1536 1538 1539 1539 1537 1537 1539 1538 1541 1544 1544 1544 1544 1544 1544 1545 1548 1550 1552 1551 1546 1542 1541 1538 1536 1538 1539 1531 1531 1512 1515 1494 1492 1493 1488 1484 1483 1482 1480
1528 1527 1529 1531 1533 1535 1535 1537 1538 1537 1539 1537 1537 1536 1539 1542 1541 1542 1543 1545 1544 1546 1548 1548 1548 1543 1541 1533 1534 1532 1525 1523 1522 1520 1519 1512 1503 1490 1485 1486 1483 1481 1480 1480 1478
1527 1530 1530 1531 1533 1535 1536 1534 1534 1535 1535 1535 1535 1537 1539 1536 1536 1537 1537 1538 1539 1543 1546 1547 1544 1540 1540 1533 1531 1523 1503 1503 1506 1506 1505 1511 1485 1483 1481 1481 1480 1477 1477 1476 1476